STARLINK-35332

Last updated on Mon Oct 20 2025 00:02:08 GMT+0000 (Coordinated Universal Time)

1 65887U 25224F 25292.25002315 -.01492437 00000+0 -80733-2 0 9991 2 65887 53.1508 313.5009 0001048 75.5691 44.2046 15.82131080 3131
UTC large
Height (km)
Speed (km/s)
/
Latitude / Longitude
Inclination (degrees)
Orbital Period (minutes)
Azimuth
Elevation
Range (km)
Doppler Factor

Next 0 passes for location: London (51.5072 / 0.1276)

Sorry there are no passes over London.